Location: Theydon Bois
(51.6750°N, 0.1050°E)
Time: 04:26:41
(UTC+00:00)

Envisat - Visible Passes

Search period start: 14 December 2017 00:00
Search period end: 24 December 2017 00:00
Orbit: 764 x 766 km, 98.2° (Epoch: 13 December)

Date Brightness Start Highest point End Pass type
(mag) Time Alt. Az. Time Alt. Az. Time Alt. Az.
14 Dec 6.0 06:57:41 10° ENE 06:59:32 12° E 07:01:23 10° ESE visible
14 Dec 5.0 18:24:12 14° N 18:24:12 14° N 18:25:03 10° N visible
14 Dec 5.7 20:04:24 11° NNW 20:04:24 11° NNW 20:04:30 10° NNW visible
15 Dec 5.0 17:47:03 12° NNE 17:47:03 12° NNE 17:47:34 10° NNE visible
15 Dec 5.4 19:27:14 13° NNW 19:27:14 13° NNW 19:27:50 10° NNW visible
16 Dec 5.7 07:21:53 10° NE 07:25:31 19° E 07:29:08 10° SE visible
16 Dec 5.1 18:50:04 15° N 18:50:04 15° N 18:50:56 10° N visible
17 Dec 5.0 18:12:54 14° NNE 18:12:54 14° NNE 18:13:45 10° N visible
17 Dec 5.6 19:53:07 12° NNW 19:53:07 12° NNW 19:53:26 10° NNW visible
18 Dec 5.0 17:35:44 11° NNE 17:35:44 11° NNE 17:36:03 10° NNE visible
18 Dec 5.2 19:15:56 14° N 19:15:56 14° N 19:16:41 10° N visible
19 Dec 5.8 07:11:10 10° NE 07:14:15 16° E 07:17:20 10° SE visible
19 Dec 5.0 18:38:45 15° N 18:38:45 15° N 18:39:42 10° N visible
20 Dec 5.0 18:01:34 13° NNE 18:01:34 13° NNE 18:02:25 10° N visible
20 Dec 5.4 19:41:46 13° NNW 19:41:46 13° NNW 19:42:20 10° NNW visible
21 Dec 5.1 19:04:35 15° N 19:04:35 15° N 19:05:31 10° N visible
22 Dec 5.9 07:00:40 10° ENE 07:02:58 13° E 07:05:15 10° ESE visible
22 Dec 4.9 18:27:23 15° N 18:27:23 15° N 18:28:27 10° N visible
22 Dec 5.7 20:07:35 11° NNW 20:07:35 11° NNW 20:07:50 10° NNW visible
23 Dec 4.9 17:50:11 13° NNE 17:50:11 13° NNE 17:51:02 10° NNE visible
23 Dec 5.3 19:30:23 15° NNW 19:30:23 15° NNW 19:31:13 10° NNW visible
